#timestamp,LO_Frequency,Hit,StdDev 
1669075215.4,286046999.7,P
1669075235.2,286047000.8,N
1669075255.0,286047001.0,N
1669075255.9,286047001.0,N
1669075275.8,286047002.5,Y
1669075295.6,286047000.9,P
1669075315.5,286047001.2,P
1669075335.3,286046998.1,P
1669075355.1,286047000.2,N
1669075375.9,286047001.0,N
1669075395.7,286046998.1,N
1669075415.6,286047000.8,N
1669075435.4,286047000.1,N
1669075455.2,286047002.8,N
1669075475.1,286047001.2,N
1669075476.0,286047001.2,N
1669075495.8,286046998.5,N
1669075515.6,286047000.5,N
1669075535.5,286047000.2,N
1669075555.3,286047002.5,N
1669075575.2,286047002.3,N
1669075595.9,286047002.6,N
1669075615.7,286047000.9,N
1669075635.6,286047002.8,N
1669075655.4,286047002.4,N
1669075675.2,286047002.5,N
1669075695.1,286047001.9,N
1669075696.0,286047001.9,N
1669075715.8,286047001.8,N
1669075735.7,286047000.2,N
1669075755.5,286047002.5,N
1669075775.3,286047003.9,N
1669075795.2,286047001.6,N
1669075815.9,286047002.4,N
1669075835.7,286047001.5,N
1669075855.6,286047002.7,N
1669075875.4,286046999.9,N
1669075895.3,286047000.2,N
1669075915.1,286047002.0,N
1669075916.0,286047002.0,N
1669075935.8,286047000.7,N
1669075955.7,286047001.6,N
1669075975.5,286047001.9,N
1669075995.3,286047004.1,Y
1669076015.2,286047004.4,P
1669076035.0,286047002.7,N
1669076035.9,286047002.7,N
1669076055.8,286046999.8,N
1669076075.6,286047000.0,N
1669076095.4,286047000.0,N
1669076115.3,286047002.3,N
1669076135.1,286047000.3,N
1669076155.8,286046999.7,N
1669076175.7,286047001.4,N
1669076195.5,286047002.6,N
1669076215.4,286047000.2,N
1669076235.2,286047002.3,N
1669076255.0,286047002.8,N
1669076255.9,286047002.8,N
1669076275.8,286047000.1,N
1669076295.6,286047000.0,N
1669076315.4,286047000.0,N
1669076335.3,286047001.1,N
1669076355.1,286047000.9,N
1669076375.9,286046998.4,N
1669076395.7,286047000.0,N
1669076415.5,286047000.6,N
1669076435.4,286046998.4,N
1669076455.2,286046998.6,N
1669076475.0,286047000.5,N
1669076475.9,286047000.5,N
1669076495.8,286047000.9,N
1669076515.6,286047000.3,N
1669076535.5,286047000.0,N
1669076555.3,286047000.4,N
1669076575.1,286047000.2,N
1669076595.9,286047000.5,N
1669076615.7,286047000.8,N
1669076635.5,286046999.9,N
1669076655.4,286046999.8,N
1669076675.2,286047000.9,N
1669076695.1,286047001.1,N
1669076696.0,286047001.1,N
1669076715.8,286047000.8,N
1669076735.6,286047000.6,N
1669076755.5,286047000.9,N
1669076775.3,286047000.8,N
1669076795.1,286047000.9,N
1669076815.9,286047000.2,N
1669076835.7,286046999.8,N
1669076855.6,286047001.0,N
1669076875.4,286047001.1,N
1669076895.2,286046999.9,N
1669076915.1,286047002.8,Y
1669076916.0,286047002.8,P
1669076935.8,286047000.7,N
1669076955.7,286047000.3,N
1669076975.5,286047000.5,N
1669076995.3,286047000.8,N
1669077015.2,286046999.2,N
1669077035.0,286046998.5,N
1669077035.9,286046998.5,N
1669077055.8,286046999.0,N
1669077075.6,286046998.5,N
1669077095.4,286046999.4,N
1669077115.3,286046998.7,N
1669077135.1,286047000.3,N
1669077155.8,286047000.1,N
1669077175.7,286047002.7,N
1669077195.5,286047002.0,N
1669077215.4,286046999.7,N
1669077235.2,286047000.5,N
1669077255.0,286046998.4,N
1669077255.9,286046998.4,N
1669077275.8,286047002.7,N
1669077295.6,286047002.0,N
1669077315.4,286047000.2,N
1669077335.3,286047000.3,N
1669077355.1,286047002.8,N
1669077375.9,286047002.4,N
1669077395.7,286046999.7,N
1669077415.5,286046999.8,N
1669077435.4,286047002.1,N
1669077455.2,286047001.7,N
1669077475.0,286047001.7,N
1669077476.0,286047001.7,N
1669077495.8,286047002.7,N
1669077515.6,286047004.2,N
1669077535.5,286047001.3,N
1669077555.3,286047003.2,N
1669077575.1,286047003.0,N
1669077595.9,286047003.3,N
1669077615.7,286047004.4,N
1669077635.6,286047003.0,N
1669077655.4,286047003.9,N
1669077675.2,286047003.1,N
1669077695.1,286047004.2,N
1669077696.0,286047004.2,N
1669077715.8,286047001.4,N
1669077735.7,286047002.2,N
1669077755.5,286047001.6,N
1669077775.3,286047001.5,N
1669077795.2,286047003.4,N
1669077815.9,286047003.3,N
1669077835.7,286047003.7,N
1669077855.6,286047003.6,N
1669077875.4,286047003.5,N
1669077895.3,286047003.7,N
1669077915.1,286047003.7,Y
1669077916.0,286047003.7,P
1669077935.8,286046999.9,N
1669077955.7,286047000.6,N
1669077975.5,286047001.0,N
1669077995.3,286047002.7,N
1669078015.2,286047000.4,N
1669078035.0,286046998.3,N
1669078035.9,286046998.3,N
1669078055.8,286046996.8,N
1669078075.6,286046999.2,N
1669078095.4,286046999.1,N
1669078115.3,286046998.8,N
1669078135.1,286046999.5,N
1669078155.8,286047001.0,N
1669078175.7,286046998.6,N
1669078195.5,286046998.1,N
1669078215.4,286047000.4,N
1669078235.2,286047000.6,N
1669078255.0,286047002.7,N
1669078255.9,286047002.7,N
1669078275.8,286047000.8,N
1669078295.6,286046998.5,N
1669078315.5,286046999.8,N
1669078335.3,286047000.3,N
1669078355.1,286047000.6,N
1669078375.9,286047002.8,N
1669078395.7,286047001.9,N
1669078415.5,286047001.7,N
1669078435.4,286047001.8,N
1669078455.2,286047002.3,N
1669078475.1,286047002.1,N
1669078476.0,286047002.1,N
1669078495.8,286047002.1,N
1669078515.6,286047001.7,N
1669078535.5,286047001.5,N
1669078555.3,286047003.1,N
1669078575.1,286047003.4,N
1669078595.9,286047003.2,N
1669078615.7,286047001.9,N
1669078635.6,286047001.4,N
1669078655.4,286047004.4,N
1669078675.2,286047004.3,N
1669078695.1,286047002.2,N
1669078696.0,286047002.2,N
1669078715.8,286047001.7,N
1669078735.6,286047001.6,N
1669078755.5,286047002.1,N
1669078775.3,286047000.7,N
1669078795.2,286047000.2,N
